Harlan, IA

8:09 PM CST on December 06, 2019 (GMT -0600)
Harlan Municipal

Weather History for KHNR - October, 2019

Change the Weather History Date:

Wednesday, October 30, 2019

  Actual Average Record
Temperature  
Mean Temperature 28 °F -  
Max Temperature 33 °F 56 °F 83 °F (1950)
Min Temperature 24 °F 37 °F 18 °F (1988)
Degree Days  
Heating Degree Days 36    
Moisture  
Dew Point 19 °F    
Average Humidity 66    
Maximum Humidity 93    
Minimum Humidity 48    
Precipitation  
Precipitation 0.00 in - - ()
Sea Level Pressure  
Sea Level Pressure 30.30 in    
Wind  
Wind Speed 11 mph ()    
Max Wind Speed 15 mph    
Max Gust Speed 22 mph    
Visibility 8.6 miles    
Events Snow    
Averages and records for this station are not official NWS values.
T = Trace of Precipitation, MM = Missing Value Source: Averaged Metar Reports

Daily Weather History Graph

Daily Weather History Graph

Search for Another Location

Airport or City:

Astronomy

Oct. 30, 2019 Rise Set
Actual Time 7:50 AM CDT 6:18 PM CDT
Civil Twilight 7:21 AM CDT 6:47 PM CDT
Nautical Twilight 6:49 AM CDT 7:20 PM CDT
Astronomical Twilight 6:16 AM CDT 7:52 PM CDT
Moon 10:36 AM CDT (10/30) 8:25 PM CDT (10/30)
Length of Visible Light 11h 25m
Length of Day
10h 28m
Waxing Crescent, 9% of the Moon is Illuminated
Oct 30
Waxing Crescent
Nov 4
First Quarter
Nov 12
Full
Nov 19
Last Quarter
Nov 26
New

Hourly Weather History & Observations

Time (CDT) Temp. Windchill Dew Point Humidity Pressure Visibility Wind Dir Wind Speed Gust Speed Precip Events Conditions
12:15 AM 32.0 °F 23.0 °F 24.8 °F 75% 30.32 in 10.0 mi North 11.5 mph - N/A   Mostly Cloudy
12:35 AM 32.0 °F 23.0 °F 24.8 °F 75% 30.33 in 10.0 mi North 11.5 mph 17.3 mph N/A   Partly Cloudy
12:55 AM 32.0 °F 23.0 °F 24.8 °F 75% 30.34 in 10.0 mi North 11.5 mph - N/A   Clear
1:15 AM 32.0 °F 23.6 °F 23.0 °F 69% 30.34 in 10.0 mi North 10.4 mph - N/A   Clear
1:35 AM 32.0 °F 24.2 °F 23.0 °F 69% 30.34 in 10.0 mi North 9.2 mph - N/A   Clear
1:55 AM 30.2 °F 21.3 °F 23.0 °F 75% 30.33 in 10.0 mi North 10.4 mph - N/A   Clear
2:15 AM 30.2 °F 21.9 °F 21.2 °F 69% 30.33 in 10.0 mi North 9.2 mph 16.1 mph N/A   Clear
2:35 AM 30.2 °F 21.9 °F 21.2 °F 69% 30.33 in 10.0 mi North 9.2 mph - N/A   Mostly Cloudy
2:55 AM 30.2 °F 19.8 °F 19.4 °F 64% 30.33 in 10.0 mi North 13.8 mph - N/A   Scattered Clouds
3:15 AM 30.2 °F 21.3 °F 19.4 °F 64% 30.33 in 10.0 mi North 10.4 mph - N/A   Mostly Cloudy
3:35 AM 30.2 °F 20.2 °F 19.4 °F 64% 30.33 in 10.0 mi North 12.7 mph - N/A   Overcast
3:55 AM 30.2 °F 20.2 °F 17.6 °F 60% 30.34 in 10.0 mi North 12.7 mph 19.6 mph N/A   Overcast
4:15 AM 30.2 °F 20.2 °F 15.8 °F 55% 30.35 in 10.0 mi North 12.7 mph 19.6 mph N/A   Overcast
4:35 AM 30.2 °F 20.2 °F 15.8 °F 55% 30.34 in 10.0 mi North 12.7 mph 21.9 mph N/A   Overcast
4:55 AM 28.4 °F 17.5 °F 15.8 °F 59% 30.35 in 10.0 mi North 13.8 mph 21.9 mph N/A   Overcast
5:15 AM 28.4 °F 18.5 °F 15.8 °F 59% 30.34 in 10.0 mi NNE 11.5 mph 18.4 mph N/A   Overcast
5:35 AM 28.4 °F 18.0 °F 15.8 °F 59% 30.34 in 10.0 mi North 12.7 mph 19.6 mph N/A   Overcast
5:55 AM 28.4 °F 18.0 °F 15.8 °F 59% 30.35 in 10.0 mi North 12.7 mph 18.4 mph N/A   Overcast
6:15 AM 28.4 °F 18.0 °F 15.8 °F 59% 30.34 in 10.0 mi North 12.7 mph - N/A   Overcast
6:35 AM 28.4 °F 17.0 °F 15.8 °F 59% 30.34 in 10.0 mi North 15.0 mph - N/A   Overcast
6:55 AM 28.4 °F 19.1 °F 15.8 °F 59% 30.35 in 10.0 mi North 10.4 mph 18.4 mph N/A   Overcast
7:15 AM 28.4 °F 20.4 °F 14.0 °F 55% 30.36 in 10.0 mi North 8.1 mph 18.4 mph N/A   Overcast
7:35 AM 28.4 °F 17.5 °F 15.8 °F 59% 30.35 in 10.0 mi North 13.8 mph - N/A   Overcast
7:55 AM 26.6 °F 17.5 °F 19.4 °F 74% 30.37 in 10.0 mi North 9.2 mph 17.3 mph N/A   Overcast
8:15 AM 26.6 °F 16.2 °F 19.4 °F 74% 30.36 in 10.0 mi North 11.5 mph 18.4 mph N/A   Mostly Cloudy
8:35 AM 26.6 °F 15.2 °F 19.4 °F 74% 30.38 in 10.0 mi North 13.8 mph - N/A   Partly Cloudy
8:55 AM 26.6 °F 14.7 °F 19.4 °F 74% 30.38 in 10.0 mi North 15.0 mph - N/A   Clear
9:15 AM 26.6 °F 15.7 °F 21.2 °F 80% 30.38 in 6.0 mi North 12.7 mph 18.4 mph N/A   Scattered Clouds
9:35 AM 24.8 °F 13.4 °F 23.0 °F 93% 30.38 in 1.8 mi North 12.7 mph - N/A Snow Light Snow
9:55 AM 24.8 °F 14.0 °F 23.0 °F 93% 30.38 in 2.0 mi North 11.5 mph - N/A Snow Light Snow
10:15 AM 24.8 °F 15.3 °F 23.0 °F 93% 30.37 in 2.0 mi North 9.2 mph 16.1 mph N/A Snow Light Snow
10:35 AM 26.6 °F 18.2 °F 24.8 °F 93% 30.37 in 1.8 mi North 8.1 mph - N/A Snow Light Snow
10:55 AM 26.6 °F 18.2 °F 24.8 °F 93% 30.37 in 2.0 mi NNE 8.1 mph - N/A Snow Light Snow
11:15 AM 26.6 °F 16.2 °F 23.0 °F 86% 30.36 in 2.0 mi North 11.5 mph - N/A Snow Light Snow
11:35 AM 26.6 °F 16.2 °F 23.0 °F 86% 30.37 in 2.0 mi NNE 11.5 mph - N/A Snow Light Snow
11:55 AM 26.6 °F 16.2 °F 23.0 °F 86% 30.35 in 3.0 mi North 11.5 mph - N/A Snow Light Snow
12:15 PM 26.6 °F 15.2 °F 23.0 °F 86% 30.35 in 3.0 mi NNE 13.8 mph - N/A Snow Light Snow
12:35 PM 26.6 °F 16.8 °F 23.0 °F 86% 30.34 in 2.5 mi North 10.4 mph 16.1 mph N/A Snow Light Snow
12:55 PM 26.6 °F 18.2 °F 23.0 °F 86% 30.34 in 1.8 mi North 8.1 mph - N/A Snow Light Snow
1:15 PM 28.4 °F 19.1 °F 23.0 °F 80% 30.32 in 3.0 mi North 10.4 mph - N/A Snow Light Snow
1:35 PM 28.4 °F 19.1 °F 23.0 °F 80% 30.31 in 8.0 mi North 10.4 mph - N/A Snow Light Snow
2:15 PM 32.0 °F 22.5 °F 21.2 °F 64% 30.28 in 10.0 mi North 12.7 mph - N/A   Scattered Clouds
2:35 PM 32.0 °F 22.1 °F 21.2 °F 64% 30.27 in 10.0 mi North 13.8 mph - N/A   Partly Cloudy
2:55 PM 33.8 °F 25.3 °F 19.4 °F 56% 30.26 in 10.0 mi North 11.5 mph 19.6 mph N/A   Clear
3:15 PM 33.8 °F 23.9 °F 19.4 °F 56% 30.24 in 10.0 mi NNW 15.0 mph - N/A   Clear
3:35 PM 33.8 °F 24.3 °F 17.6 °F 52% 30.24 in 10.0 mi NNW 13.8 mph 21.9 mph N/A   Clear
3:55 PM 33.8 °F 24.8 °F 17.6 °F 52% 30.24 in 10.0 mi North 12.7 mph 19.6 mph N/A   Clear
4:15 PM 33.8 °F 24.3 °F 17.6 °F 52% 30.24 in 10.0 mi NNW 13.8 mph - N/A   Clear
4:35 PM 33.8 °F 24.3 °F 15.8 °F 48% 30.23 in 10.0 mi North 13.8 mph 20.7 mph N/A   Clear
4:55 PM 33.8 °F 25.3 °F 15.8 °F 48% 30.23 in 10.0 mi North 11.5 mph - N/A   Partly Cloudy
5:15 PM 32.0 °F 22.5 °F 14.0 °F 48% 30.23 in 10.0 mi North 12.7 mph - N/A   Scattered Clouds
5:35 PM 32.0 °F 21.6 °F 15.8 °F 51% 30.22 in 10.0 mi North 15.0 mph - N/A   Scattered Clouds
5:55 PM 32.0 °F 22.1 °F 15.8 °F 51% 30.22 in 10.0 mi North 13.8 mph - N/A   Clear
6:15 PM 32.0 °F 23.0 °F 15.8 °F 51% 30.22 in 10.0 mi North 11.5 mph - N/A   Partly Cloudy
6:35 PM 32.0 °F 24.2 °F 15.8 °F 51% 30.22 in 10.0 mi North 9.2 mph - N/A   Mostly Cloudy
6:55 PM 30.2 °F 21.3 °F 17.6 °F 60% 30.22 in 10.0 mi North 10.4 mph - N/A   Overcast
7:15 PM 30.2 °F 21.3 °F 17.6 °F 60% 30.23 in 10.0 mi NNW 10.4 mph - N/A   Overcast
7:35 PM 30.2 °F 22.6 °F 15.8 °F 55% 30.23 in 10.0 mi NNW 8.1 mph - N/A   Overcast
7:55 PM 30.2 °F 20.2 °F 15.8 °F 55% 30.23 in 10.0 mi NNW 12.7 mph - N/A   Overcast
8:15 PM 30.2 °F 21.9 °F 15.8 °F 55% 30.22 in 10.0 mi NNW 9.2 mph - N/A   Overcast
8:35 PM 30.2 °F 21.9 °F 15.8 °F 55% 30.22 in 10.0 mi NNW 9.2 mph - N/A   Overcast
8:55 PM 28.4 °F 19.7 °F 15.8 °F 59% 30.22 in 10.0 mi NNW 9.2 mph - N/A   Overcast
9:15 PM 28.4 °F 19.1 °F 15.8 °F 59% 30.22 in 10.0 mi NNW 10.4 mph - N/A   Overcast
9:35 PM 28.4 °F 19.7 °F 15.8 °F 59% 30.22 in 10.0 mi NNW 9.2 mph - N/A   Overcast
9:55 PM 28.4 °F 19.7 °F 17.6 °F 64% 30.23 in 10.0 mi NW 9.2 mph - N/A   Overcast
10:15 PM 28.4 °F 19.1 °F 15.8 °F 59% 30.23 in 10.0 mi NW 10.4 mph - N/A   Overcast
10:35 PM 28.4 °F 20.4 °F 17.6 °F 64% 30.23 in 10.0 mi NW 8.1 mph - N/A   Overcast
10:55 PM 28.4 °F 19.7 °F 17.6 °F 64% 30.23 in 10.0 mi NW 9.2 mph - N/A   Overcast
11:15 PM 28.4 °F 19.1 °F 17.6 °F 64% 30.23 in 10.0 mi NW 10.4 mph - N/A   Overcast
11:35 PM 26.6 °F 17.5 °F 17.6 °F 69% 30.22 in 10.0 mi NW 9.2 mph - N/A   Overcast
11:55 PM 26.6 °F 17.5 °F 17.6 °F 69% 30.22 in 10.0 mi NW 9.2 mph - N/A   Overcast